When you browse on this site, cookies collect data to enhance your experience and personalize the content and advertising you see.
Visit our Privacy Policy to learn more. By continuing to use the site, you agree to this use of cookies and data.
  • In Czech Republic
  • List of Countries
  • For 7 days
  • Water Temperature
  • Satellite Maps
  • Weather Map
  • Weather Widgets
  • user-avatar
    Login

    Hourly Weather Lamu

    Today, 24 January, Thursday

    Time Temperature Precipitation Wind Pressure Humidity
    00:00 +26°C° 0 mm 5 mps 758 mmHg 85%
    01:00 +26°C° 0 mm 4 mps 758 mmHg 87%
    02:00 +26°C° 0 mm 4 mps 758 mmHg 89%
    03:00 +26°C° 0 mm 4 mps 758 mmHg 91%
    04:00 +26°C° 0 mm 4 mps 758 mmHg 93%
    05:00 +26°C° 0 mm 4 mps 758 mmHg 94%
    06:00 +25°C° 0 mm 3 mps 758 mmHg 95%
    07:00 +27°C° 0 mm 4 mps 759 mmHg 87%
    08:00 +28°C° 0 mm 4 mps 759 mmHg 79%
    09:00 +29°C° 0 mm 4 mps 759 mmHg 72%
    10:00 +33°C° 0 mm 4 mps 759 mmHg 62%
    11:00 +35°C° 0 mm 4 mps 759 mmHg 52%
    12:00 +37°C° 0 mm 4 mps 759 mmHg 41%
    13:00 +37°C° 0 mm 4 mps 758 mmHg 43%
    14:00 +37°C° 0 mm 5 mps 758 mmHg 44%
    15:00 +38°C° 0 mm 6 mps 757 mmHg 45%
    16:00 +35°C° 0 mm 6 mps 757 mmHg 52%
    17:00 +33°C° 0 mm 6 mps 756 mmHg 59%
    18:00 +30°C° 0 mm 7 mps 756 mmHg 66%
    19:00 +29°C° 0 mm 6 mps 756 mmHg 70%
    20:00 +28°C° 0 mm 6 mps 757 mmHg 74%
    21:00 +27°C° 0 mm 5 mps 757 mmHg 78%
    22:00 +27°C° 0 mm 5 mps 757 mmHg 81%
    23:00 +27°C° 0 mm 4 mps 757 mmHg 83%

    Tomorrow, 25 January, Friday

    Time Temperature Precipitation Wind Pressure Humidity
    00:00 +26°C° 0 mm 4 mps 758 mmHg 86%
    01:00 +26°C° 0 mm 4 mps 757 mmHg 88%
    02:00 +26°C° 0 mm 3 mps 757 mmHg 89%
    03:00 +25°C° 0 mm 3 mps 757 mmHg 91%
    04:00 +25°C° 0 mm 3 mps 757 mmHg 92%
    05:00 +25°C° 0 mm 2 mps 757 mmHg 93%
    06:00 +25°C° 0 mm 2 mps 758 mmHg 94%
    07:00 +27°C° 0 mm 2 mps 758 mmHg 85%
    08:00 +28°C° 0 mm 3 mps 759 mmHg 77%
    09:00 +30°C° 0 mm 3 mps 760 mmHg 68%
    10:00 +33°C° 0 mm 3 mps 759 mmHg 60%
    11:00 +35°C° 0 mm 4 mps 759 mmHg 52%
    12:00 +37°C° 0 mm 4 mps 759 mmHg 44%
    13:00 +37°C° 0 mm 5 mps 758 mmHg 44%
    14:00 +38°C° 0 mm 6 mps 757 mmHg 44%
    15:00 +38°C° 0 mm 6 mps 756 mmHg 44%
    16:00 +35°C° 0 mm 7 mps 756 mmHg 52%
    17:00 +33°C° 0 mm 7 mps 756 mmHg 59%
    18:00 +30°C° 0 mm 7 mps 756 mmHg 67%
    19:00 +29°C° 0 mm 7 mps 757 mmHg 71%
    20:00 +28°C° 0 mm 6 mps 757 mmHg 76%
    21:00 +27°C° 0 mm 6 mps 758 mmHg 81%
    22:00 +27°C° 0 mm 6 mps 758 mmHg 82%
    23:00 +27°C° 0 mm 5 mps 758 mmHg 83%

    Day after tomorrow, 26 January, Saturday

    Time Temperature Precipitation Wind Pressure Humidity
    00:00 +27°C° 0 mm 5 mps 759 mmHg 85%
    01:00 +27°C° 0 mm 5 mps 758 mmHg 86%
    02:00 +26°C° 0 mm 4 mps 758 mmHg 87%
    03:00 +26°C° 0 mm 4 mps 757 mmHg 89%
    04:00 +26°C° 0 mm 4 mps 758 mmHg 90%
    05:00 +26°C° 0 mm 4 mps 758 mmHg 90%
    06:00 +26°C° 0 mm 3 mps 759 mmHg 91%
    07:00 +27°C° 0 mm 3 mps 759 mmHg 83%
    08:00 +28°C° 0 mm 4 mps 760 mmHg 76%
    09:00 +30°C° 0 mm 4 mps 760 mmHg 68%
    10:00 +32°C° 0 mm 4 mps 760 mmHg 61%
    11:00 +34°C° 0 mm 4 mps 760 mmHg 54%
    12:00 +36°C° 0 mm 4 mps 760 mmHg 47%
    13:00 +36°C° 0 mm 5 mps 759 mmHg 45%
    14:00 +37°C° 0 mm 5 mps 758 mmHg 42%
    15:00 +38°C° 0 mm 6 mps 757 mmHg 40%
    16:00 +36°C° 0 mm 6 mps 757 mmHg 46%
    17:00 +34°C° 0 mm 7 mps 757 mmHg 52%
    18:00 +32°C° 0 mm 7 mps 757 mmHg 58%
    19:00 +30°C° 0 mm 7 mps 757 mmHg 64%
    20:00 +29°C° 0 mm 7 mps 758 mmHg 69%
    21:00 +27°C° 0 mm 6 mps 758 mmHg 74%
    22:00 +27°C° 0 mm 6 mps 758 mmHg 77%
    23:00 +27°C° 0 mm 5 mps 758 mmHg 80%

    27 January, Sunday

    Time Temperature Precipitation Wind Pressure Humidity
    00:00 +26°C° 0 mm 5 mps 759 mmHg 83%
    01:00 +26°C° 0 mm 4 mps 758 mmHg 85%
    02:00 +25°C° 0 mm 4 mps 758 mmHg 88%
    03:00 +25°C° 0 mm 4 mps 757 mmHg 90%
    04:00 +25°C° 0 mm 4 mps 757 mmHg 91%
    05:00 +25°C° 0 mm 4 mps 758 mmHg 92%
    06:00 +25°C° 0 mm 4 mps 758 mmHg 92%
    07:00 +27°C° 0 mm 4 mps 758 mmHg 84%
    08:00 +28°C° 0 mm 5 mps 759 mmHg 76%
    09:00 +30°C° 0 mm 5 mps 759 mmHg 68%
    10:00 +33°C° 0 mm 5 mps 759 mmHg 59%
    11:00 +35°C° 0 mm 5 mps 759 mmHg 50%
    12:00 +39°C° 0 mm 5 mps 758 mmHg 41%
    13:00 +39°C° 0 mm 5 mps 757 mmHg 42%
    14:00 +38°C° 0 mm 6 mps 756 mmHg 43%
    15:00 +38°C° 0 mm 7 mps 756 mmHg 44%
    16:00 +35°C° 0 mm 7 mps 756 mmHg 52%
    17:00 +33°C° 0 mm 7 mps 755 mmHg 60%
    18:00 +30°C° 0 mm 7 mps 755 mmHg 68%
    19:00 +29°C° 0 mm 6 mps 756 mmHg 72%
    20:00 +28°C° 0 mm 6 mps 757 mmHg 75%
    21:00 +28°C° 0 mm 5 mps 758 mmHg 79%
    22:00 +27°C° 0 mm 5 mps 758 mmHg 80%
    23:00 +27°C° 0 mm 5 mps 758 mmHg 81%

    28 January, Monday

    Time Temperature Precipitation Wind Pressure Humidity
    00:00 +27°C° 0 mm 4 mps 758 mmHg 83%
    01:00 +26°C° 0 mm 4 mps 758 mmHg 83%
    02:00 +26°C° 0 mm 4 mps 757 mmHg 84%
    03:00 +26°C° 0 mm 4 mps 757 mmHg 84%
    04:00 +26°C° 0 mm 4 mps 758 mmHg 86%
    05:00 +26°C° 0 mm 4 mps 758 mmHg 87%
    06:00 +26°C° 0 mm 4 mps 758 mmHg 88%
    07:00 +27°C° 0 mm 5 mps 759 mmHg 83%
    08:00 +28°C° 0 mm 5 mps 760 mmHg 77%
    09:00 +29°C° 0 mm 6 mps 760 mmHg 72%
    10:00 +29°C° 0 mm 5 mps 760 mmHg 69%
    11:00 +30°C° 0 mm 5 mps 759 mmHg 65%
    12:00 +32°C° 0 mm 4 mps 759 mmHg 62%
    13:00 +32°C° 0 mm 4 mps 758 mmHg 60%
    14:00 +33°C° 0 mm 4 mps 758 mmHg 57%
    15:00 +34°C° 0 mm 5 mps 757 mmHg 54%
    16:00 +33°C° 0 mm 5 mps 757 mmHg 60%
    17:00 +30°C° 0 mm 5 mps 757 mmHg 65%
    18:00 +29°C° 0 mm 6 mps 757 mmHg 71%
    19:00 +28°C° 0 mm 6 mps 757 mmHg 74%
    20:00 +28°C° 0 mm 6 mps 758 mmHg 76%
    21:00 +27°C° 0 mm 6 mps 758 mmHg 79%
    22:00 +27°C° 0 mm 5 mps 758 mmHg 80%
    23:00 +27°C° 0 mm 5 mps 758 mmHg 82%

    29 January, Tuesday

    Time Temperature Precipitation Wind Pressure Humidity
    00:00 +26°C° 0 mm 5 mps 758 mmHg 83%
    01:00 +26°C° 0 mm 5 mps 758 mmHg 85%
    02:00 +26°C° 0 mm 4 mps 757 mmHg 87%
    03:00 +25°C° 0 mm 4 mps 757 mmHg 89%
    04:00 +25°C° 0 mm 4 mps 758 mmHg 91%
    05:00 +25°C° 0 mm 4 mps 758 mmHg 92%
    06:00 +25°C° 0 mm 4 mps 758 mmHg 94%
    07:00 +26°C° 0 mm 4 mps 759 mmHg 87%
    08:00 +27°C° 0 mm 4 mps 760 mmHg 80%
    09:00 +29°C° 0 mm 4 mps 760 mmHg 73%
    10:00 +29°C° 0 mm 3 mps 760 mmHg 69%
    11:00 +30°C° 0 mm 3 mps 759 mmHg 66%
    12:00 +31°C° 0 mm 3 mps 759 mmHg 62%
    13:00 +31°C° 0.1 mm 3 mps 758 mmHg 62%
    14:00 +32°C° 0.1 mm 4 mps 757 mmHg 62%
    15:00 +32°C° 0.1 mm 5 mps 757 mmHg 62%
    16:00 +32°C° 0 mm 5 mps 757 mmHg 64%
    17:00 +30°C° 0 mm 5 mps 757 mmHg 66%
    18:00 +29°C° 0 mm 5 mps 757 mmHg 68%
    19:00 +29°C° 0 mm 5 mps 757 mmHg 73%
    20:00 +28°C° 0 mm 4 mps 758 mmHg 79%
    21:00 +27°C° 0 mm 4 mps 758 mmHg 84%
    22:00 +27°C° 0 mm 4 mps 758 mmHg 86%
    23:00 +26°C° 0 mm 4 mps 758 mmHg 87%
    Show more